Temperature
16 17 16 15 15 14 14 14 13 13 13 12 12 12 12 12 12 12 11 12 12 12 12 11 11 12 12 12 13 13 13 13 13 12 12 12 12 13 13 13 13 13 13
17 17 16 15 15 14 14 14 13 13 12 12 12 12 11 11 11 11 11 11 11 11 11 11 11 11 12 12 13 13 13 13 12 12 12 12 12 12 12 12 12 12 12
17 17 16 15 15 14 14 14 13 13 12 12 11 11 11 11 11 11 11 11 11 11 11 11 11 11 12 13 13 13 13 12 12 11 11 11 11 11 11 12 12 12 12
17 17 16 15 15 14 14 13 13 13 12 11 11 11 11 11 10 10 10 10 10 11 11 11 11 11 12 12 13 13 13 12 11 11 11 11 11 10 11 11 11 11 11
16 16 16 15 14 14 13 13 13 12 12 11 11 11 11 10 10 10 10 10 11 11 11 11 11 11 12 12 13 13 12 12 12 11 11 11 11 10 10 10 11 11 11
16 16 16 15 15 14 13 13 12 12 11 11 11 10 10 10 11 11 11 11 11 11 11 11 11 12 12 12 12 12 12 12 12 12 12 12 12 11 10 10 10 10 10
16 16 16 15 14 14 13 13 12 12 11 11 11 10 10 10 11 11 11 11 11 11 11 11 11 11 12 12 12 12 12 12 11 11 11 12 11 11 10 10 10 10 10
16 16 16 15 14 14 13 13 12 12 11 11 10 10 10 10 10 11 11 11 11 11 11 11 11 11 11 11 12 12 12 11 11 10 11 11 11 11 10 10 9 9 9
16 16 16 15 14 13 13 13 12 12 11 11 10 10 10 10 10 10 11 11 11 11 10 10 11 11 11 11 11 11 11 11 10 10 10 10 11 10 10 9 9 9 9
16 15 16 15 14 13 13 12 12 11 11 11 11 10 10 10 10 10 10 10 10 10 10 10 10 10 10 10 10 10 10 10 9 9 9 10 10 10 9 9 9 9 9
15 15 15 15 14 13 13 12 12 11 11 11 11 11 10 10 10 9 10 10 10 10 10 10 10 9 9 9 9 9 9 9 9 9 9 9 9 9 9 9 9 8 8
16 15 15 14 14 13 12 12 12 11 11 11 11 10 10 9 9 9 9 9 9 9 9 9 9 9 9 8 8 8 8 8 8 8 8 8 9 9 9 8 8 8 8
16 15 15 14 14 13 12 12 12 11 11 10 10 10 10 9 9 9 9 9 9 9 9 8 8 8 8 8 8 8 8 8 8 8 8 8 8 8 9 8 8 8 8
16 16 15 14 14 13 12 12 12 11 11 11 10 10 9 9 9 9 9 9 8 8 8 8 8 8 8 8 8 8 8 8 8 8 8 8 8 8 8 8 8 7 7
17 16 15 14 14 13 12 12 12 11 11 11 10 10 9 9 9 9 9 9 9 8 8 8 8 8 8 8 8 8 8 8 8 8 8 8 8 8 8 8 8 7 7
17 16 15 14 14 13 13 12 12 11 11 11 10 10 9 9 9 9 9 9 9 9 8 8 8 8 8 8 8 8 8 8 8 8 8 8 8 8 8 8 8 7 7
17 16 15 14 14 13 13 12 12 11 11 11 10 10 10 9 9 9 9 9 9 9 9 8 8 8 8 8 8 8 8 8 8 8 7 7 7 7 7 8 8 7 7
17 16 15 14 13 13 13 12 12 11 11 11 11 10 10 10 9 9 9 9 9 9 9 9 8 8 8 8 8 8 8 8 8 8 7 7 7 7 7 7 7 7 7
18 17 16 15 14 13 13 12 12 11 11 11 11 10 10 10 10 9 9 9 9 9 9 9 8 8 8 8 8 8 8 8 8 8 7 7 7 7 7 6 6 6 6
18 17 16 15 14 13 12 12 11 11 11 11 10 10 10 10 10 9 9 9 9 9 9 8 8 8 8 8 8 8 8 8 8 7 7 7 7 6 6 6 6 6 6
17 17 16 15 14 13 12 12 12 11 11 11 10 10 10 10 10 10 9 9 9 9 9 8 8 8 8 8 8 8 8 8 7 7 7 7 6 6 5 5 5 5 5
17 17 16 15 15 14 13 13 12 12 11 11 11 10 10 10 10 10 10 9 9 9 9 9 8 8 8 7 7 7 7 7 7 7 7 6 6 5 5 5 5 4 5
17 16 16 15 14 14 13 12 12 11 11 11 10 10 10 10 10 10 10 9 9 9 9 9 8 8 7 7 7 6 6 6 6 6 6 5 5 5 5 4 4 4 4
16 15 15 14 14 13 13 12 12 12 11 11 11 10 10 10 10 10 9 9 9 9 9 8 8 8 7 7 6 6 5 5 4 5 5 5 5 4 4 4 4 4 4
15 15 14 14 13 13 13 12 12 12 11 11 11 10 10 10 10 10 10 9 9 9 9 8 8 8 7 7 6 6 6 5 4 3 4 5 5 4 4 4 4 3 3
14 14 14 13 13 13 12 12 12 11 11 10 10 10 10 10 10 10 10 9 9 9 8 8 8 7 7 7 6 6 5 5 4 3 3 3 4 4 4 4 3 3 2
Wind_Speed
10 17 18 16 14 14 14 14 14 14 14 14 14 14 14 14 15 15 16 16 16 16 17 17 17 17 17 17 17 17 17 17 18 19 20 20 20 20 20 20 18 17 19
14 19 19 17 15 15 14 14 14 13 14 13 13 14 14 14 14 15 15 15 16 16 16 16 16 16 16 16 16 16 15 15 15 16 17 18 18 18 18 18 18 16 18
16 20 18 17 16 15 15 14 14 14 13 13 13 13 13 13 14 14 14 15 15 15 15 15 15 15 16 16 15 15 14 13 13 13 15 15 16 16 16 16 16 16 16
17 20 18 18 17 16 16 15 14 14 13 13 12 12 13 13 13 13 14 14 14 14 14 14 14 15 15 15 14 14 13 13 13 14 15 15 14 14 15 14 14 14 14
15 19 20 19 17 16 16 15 14 13 13 13 12 12 12 12 12 13 13 13 13 13 13 13 13 13 13 13 13 13 12 11 12 14 13 14 13 13 13 13 12 12 12
13 20 21 20 18 16 16 15 14 13 13 12 12 11 11 11 11 12 12 12 12 12 12 12 12 12 12 12 12 11 11 12 11 11 12 14 12 11 11 11 10 10 10
12 20 21 20 18 17 16 15 14 13 13 12 11 11 10 10 10 10 10 10 10 10 10 10 10 10 10 10 10 10 10 10 6 7 8 11 10 10 10 9 9 9 8
12 18 20 20 18 17 17 15 14 13 13 12 11 10 10 9 9 9 8 8 8 8 8 8 8 8 9 9 9 8 9 9 8 5 6 10 9 10 10 9 9 9 8
13 17 18 18 17 17 17 16 15 14 13 12 11 10 9 8 8 8 7 6 6 6 6 6 6 6 6 6 6 6 7 9 9 6 5 10 9 10 10 9 9 9 9
12 14 16 18 17 17 16 16 16 15 13 12 11 10 9 8 7 7 6 5 4 4 4 4 4 4 3 3 3 5 7 10 10 3 7 8 8 10 10 10 10 10 10
11 12 13 15 17 18 17 17 16 15 14 13 12 11 10 10 10 8 7 5 2 1 1 1 2 4 5 5 5 6 9 10 6 2 6 6 6 9 11 11 11 11 11
12 12 12 12 15 17 17 17 16 15 15 14 14 13 11 8 7 7 8 5 3 3 3 4 5 6 7 5 4 7 8 7 9 4 5 4 6 9 11 11 11 11 11
12 11 11 11 14 14 12 15 13 13 15 14 15 14 10 7 5 7 8 8 7 7 6 5 6 6 4 4 4 6 6 6 7 3 3 2 5 9 11 11 11 11 11
13 12 11 11 10 12 13 12 12 11 11 11 12 12 9 6 4 4 4 5 5 3 2 2 4 4 4 5 5 6 7 6 6 4 1 1 3 6 9 10 10 10 10
14 14 12 12 11 10 10 9 10 10 11 11 11 11 10 6 4 3 3 3 1 0 1 2 4 4 4 5 6 6 7 7 7 5 1 1 1 3 6 8 9 9 9
15 15 12 12 11 10 7 7 7 10 12 12 11 11 11 8 5 3 2 3 2 2 2 3 3 3 3 3 5 7 6 7 7 8 2 1 2 2 4 6 7 8 9
14 14 13 13 12 12 10 8 8 10 12 10 11 12 11 9 7 5 3 2 2 2 1 2 4 4 3 3 3 6 6 7 6 6 5 2 3 3 2 3 5 8 9
13 15 14 12 13 13 10 9 8 10 11 10 12 12 11 10 8 6 3 2 3 2 1 1 1 2 3 3 4 4 5 6 5 5 5 3 3 4 2 0 3 6 9
12 14 15 13 13 13 11 8 8 9 9 10 12 11 11 10 9 6 4 3 5 3 1 0 1 1 2 3 4 4 4 3 3 3 3 2 3 2 1 2 2 5 8
11 13 14 14 12 12 10 8 6 7 6 9 9 10 11 10 9 7 4 4 4 2 1 0 1 1 1 2 4 5 5 4 2 1 1 2 1 1 1 2 3 5 8
10 12 14 14 13 11 10 9 8 7 6 6 6 10 11 10 10 7 4 4 3 2 2 1 2 2 2 2 3 4 5 3 1 1 1 1 2 2 3 4 4 5 7
10 11 13 14 13 12 10 9 7 7 6 5 5 8 11 10 10 8 5 4 4 2 2 2 2 1 1 2 2 2 4 5 3 2 2 1 2 3 4 6 6 6 8
10 11 11 13 13 12 11 8 7 6 5 4 5 5 7 10 10 8 7 5 4 3 3 3 3 2 0 1 2 2 1 2 4 4 3 2 2 2 3 6 7 7 8
9 9 10 11 12 11 12 11 12 8 7 6 6 5 6 9 10 9 8 7 5 3 4 3 3 2 2 0 1 0 2 2 1 4 5 3 4 4 5 4 6 8 9
9 8 8 10 11 11 12 12 11 8 7 6 7 8 7 6 9 9 9 7 5 4 4 4 3 2 2 2 1 0 1 1 2 3 5 5 5 4 5 5 6 8 10
8 8 7 9 10 11 12 12 11 11 10 10 10 9 7 6 5 7 9 7 6 4 4 4 3 3 2 2 1 2 2 2 3 3 5 6 6 5 6 5 5 7 11
Wind_Direction
131 139 147 141 135 128 122 114 109 103 98 94 87 83 78 76 74 72 70 69 67 65 63 62 61 60 59 60 60 60 60 59 58 58 57 56 57 57 54 53 55 50 53
135 140 147 142 137 131 125 118 112 106 101 96 90 85 82 79 77 75 73 70 68 65 64 63 61 61 60 59 59 58 59 57 55 55 59 55 54 55 54 52 53 52 52
133 139 147 145 138 132 128 122 116 110 105 99 93 91 88 83 79 77 75 73 70 68 66 64 62 61 60 60 58 57 55 52 45 44 56 54 50 53 53 52 51 50 50
136 142 148 145 139 133 129 126 121 116 110 104 99 96 92 87 84 80 78 75 73 70 68 65 63 61 60 59 57 55 52 46 36 46 51 49 45 48 50 49 48 47 47
137 143 143 146 142 137 133 129 126 121 116 110 106 100 95 91 87 83 79 77 74 72 69 66 63 61 59 58 55 51 44 33 34 47 46 51 42 40 45 44 43 43 42
137 137 144 149 146 142 137 133 131 126 121 116 112 107 101 96 91 87 83 80 77 74 70 67 63 60 57 55 51 46 36 25 43 48 49 49 33 28 36 37 35 34 34
141 138 148 152 152 148 145 140 136 130 127 123 119 114 109 104 98 93 88 83 78 73 69 65 61 58 54 50 45 37 24 6 32 63 62 61 32 20 22 24 21 19 20
139 138 149 155 155 153 149 145 142 138 135 132 128 123 117 113 108 103 95 87 79 73 66 61 57 53 48 43 35 23 6 354 356 29 75 72 32 11 9 9 5 2 2
139 139 149 157 158 157 154 151 148 146 143 140 137 133 129 125 120 113 106 94 82 72 62 54 49 41 35 28 18 0 341 327 317 310 72 70 26 3 356 354 350 348 346
143 146 154 161 162 160 158 156 153 151 150 149 145 144 145 145 142 137 124 106 87 66 52 41 34 19 1 338 325 319 314 305 290 290 85 70 22 355 346 342 340 337 335
156 155 160 164 165 165 163 161 156 157 158 155 155 159 166 176 174 163 137 135 123 85 27 10 339 315 301 283 272 284 295 290 312 33 93 73 16 349 339 334 333 330 328
170 169 166 165 166 167 165 161 165 166 164 169 170 175 193 194 165 151 146 167 196 228 251 256 273 283 284 277 253 265 285 330 343 1 92 67 10 343 334 330 328 327 327
174 175 170 164 165 165 160 165 171 171 171 185 179 182 190 166 156 157 170 188 210 227 237 241 262 270 305 328 306 296 314 328 313 345 105 68 2 340 331 327 327 327 329
174 177 172 162 161 162 162 168 169 167 171 179 177 178 175 165 175 182 187 183 206 208 234 282 284 301 314 317 317 318 322 322 318 323 226 138 8 345 335 332 333 335 336
174 175 175 165 163 163 163 169 171 167 169 171 173 182 174 168 177 183 184 181 200 222 279 285 294 318 326 326 327 322 320 318 317 321 313 160 76 0 346 343 344 345 346
173 173 173 170 167 165 164 165 169 166 165 168 172 183 181 178 173 174 187 179 192 219 261 285 304 327 320 330 323 316 315 329 337 340 352 134 111 67 7 357 355 355 353
171 170 173 175 171 169 170 171 172 165 163 166 171 183 183 179 177 180 184 182 192 206 259 328 343 339 326 332 328 331 339 331 328 336 358 67 114 115 70 18 3 353 350
168 169 173 176 175 173 173 173 170 169 166 168 170 179 182 183 185 184 173 176 166 132 82 24 350 347 339 347 338 331 328 325 334 342 347 6 92 104 124 136 350 343 343
169 167 169 171 176 175 172 171 168 168 164 167 170 173 178 184 186 172 166 161 140 125 117 285 70 45 355 349 332 318 310 307 313 331 348 48 86 103 162 214 276 318 328
169 165 166 169 174 171 168 168 164 162 163 167 166 168 168 173 174 167 156 144 135 131 152 4 33 40 36 6 334 314 295 273 263 5 7 45 49 315 335 324 308 315 324
165 165 167 169 175 171 170 174 172 173 168 163 157 163 165 168 165 158 146 148 137 140 145 101 65 30 26 25 1 327 312 289 122 96 27 17 343 350 339 329 331 337 335
169 169 168 170 174 174 173 172 169 164 163 158 150 159 165 163 159 158 158 151 139 134 116 98 90 50 3 56 65 2 343 342 354 343 326 313 331 350 334 325 325 327 328
171 173 174 172 171 171 163 159 153 142 137 141 154 160 162 158 154 156 161 148 139 141 142 132 119 120 50 356 91 113 67 297 317 312 310 316 332 324 309 304 303 312 315
169 166 169 166 165 167 163 167 165 165 166 169 163 161 160 158 156 159 157 145 142 139 141 142 127 130 127 258 349 127 196 192 245 308 311 313 326 310 300 299 300 296 293
149 151 160 159 163 166 168 170 170 171 169 157 156 159 163 160 157 158 155 147 147 143 141 138 134 143 151 175 185 233 290 309 225 229 284 302 311 295 299 295 289 285 283
132 141 154 159 164 167 170 173 179 177 171 162 162 165 164 158 155 157 155 154 155 146 145 148 155 168 180 191 203 206 201 220 242 244 264 289 295 290 294 282 277 274 275
Height
1532 1534 1536 1537 1539 1540 1542 1542 1543 1544 1544 1544 1544 1545 1545 1545 1545 1545 1544 1545 1545 1545 1545 1545 1545 1544 1544 1544 1544 1544 1544 1544 1545 1545 1544 1544 1544 1543 1543 1543 1543 1543 1543
1531 1533 1536 1537 1539 1541 1542 1543 1544 1544 1545 1545 1545 1546 1545 1546 1546 1546 1545 1545 1545 1546 1546 1546 1545 1545 1545 1545 1544 1544 1545 1545 1546 1546 1545 1545 1544 1544 1544 1543 1543 1543 1543
1531 1533 1535 1537 1539 1541 1542 1543 1544 1545 1545 1546 1546 1546 1547 1547 1547 1547 1547 1546 1546 1547 1547 1546 1546 1546 1546 1546 1545 1546 1546 1546 1547 1547 1546 1545 1545 1545 1544 1544 1544 1544 1543
1531 1533 1535 1537 1539 1541 1542 1544 1545 1545 1546 1547 1547 1548 1548 1548 1548 1548 1548 1548 1548 1548 1548 1548 1547 1547 1547 1547 1547 1547 1547 1548 1548 1548 1547 1546 1546 1546 1545 1545 1545 1544 1544
1532 1533 1535 1537 1539 1541 1543 1544 1545 1546 1547 1547 1548 1549 1549 1549 1549 1549 1549 1549 1549 1549 1549 1549 1549 1549 1549 1549 1549 1549 1549 1549 1549 1549 1548 1547 1547 1547 1547 1546 1546 1545 1544
1532 1534 1536 1538 1539 1541 1543 1544 1545 1546 1547 1548 1549 1549 1549 1550 1550 1550 1550 1550 1551 1551 1551 1550 1550 1550 1550 1550 1550 1550 1550 1550 1550 1550 1549 1549 1548 1548 1548 1547 1547 1546 1546
1532 1533 1536 1537 1539 1541 1543 1544 1545 1546 1547 1548 1549 1550 1550 1550 1551 1551 1551 1552 1552 1552 1552 1552 1552 1552 1552 1552 1552 1552 1551 1551 1551 1550 1550 1550 1549 1549 1549 1548 1547 1547 1546
1532 1533 1535 1537 1539 1541 1542 1544 1545 1546 1547 1548 1549 1550 1551 1551 1551 1552 1552 1553 1553 1553 1553 1553 1553 1553 1553 1553 1553 1552 1552 1552 1551 1551 1550 1550 1550 1549 1549 1548 1547 1547 1546
1532 1532 1534 1536 1538 1540 1542 1543 1545 1546 1547 1548 1549 1550 1551 1551 1552 1553 1553 1553 1554 1554 1554 1554 1554 1554 1554 1553 1553 1553 1552 1552 1552 1551 1551 1550 1549 1549 1548 1547 1547 1546 1546
1531 1532 1533 1535 1537 1539 1541 1543 1544 1546 1547 1548 1549 1550 1551 1552 1553 1553 1553 1554 1554 1554 1554 1554 1554 1554 1554 1554 1553 1553 1553 1552 1552 1552 1550 1549 1549 1548 1547 1546 1546 1545 1545
1530 1531 1532 1534 1536 1538 1540 1542 1543 1545 1546 1547 1549 1550 1551 1552 1553 1554 1554 1554 1555 1555 1555 1555 1554 1554 1554 1553 1553 1553 1553 1552 1552 1551 1549 1548 1548 1547 1546 1545 1544 1543 1543
1527 1530 1531 1533 1535 1537 1538 1540 1542 1544 1545 1547 1548 1550 1551 1552 1554 1554 1554 1555 1555 1555 1555 1554 1554 1554 1553 1553 1553 1552 1552 1552 1551 1550 1548 1547 1546 1545 1543 1543 1542 1541 1541
1525 1527 1530 1531 1533 1535 1537 1539 1541 1542 1544 1546 1548 1549 1551 1552 1554 1554 1554 1554 1554 1554 1554 1554 1554 1554 1554 1553 1553 1552 1551 1551 1550 1549 1547 1546 1544 1543 1541 1540 1540 1539 1538
1522 1524 1527 1529 1531 1533 1535 1537 1539 1541 1543 1545 1547 1549 1550 1551 1553 1553 1554 1554 1554 1554 1554 1554 1554 1553 1553 1552 1552 1551 1550 1549 1548 1547 1545 1544 1542 1541 1539 1538 1537 1537 1536
1518 1521 1524 1526 1528 1531 1533 1536 1538 1540 1542 1544 1545 1547 1549 1550 1551 1552 1553 1553 1553 1553 1553 1553 1553 1552 1552 1551 1550 1549 1548 1547 1546 1545 1543 1542 1540 1539 1538 1536 1535 1535 1534
1514 1517 1520 1522 1525 1528 1530 1533 1536 1538 1540 1542 1544 1546 1547 1548 1550 1551 1551 1552 1552 1552 1552 1552 1552 1551 1550 1549 1548 1548 1547 1545 1544 1543 1541 1540 1538 1537 1536 1535 1534 1533 1532
1510 1513 1516 1519 1522 1524 1527 1530 1533 1536 1538 1540 1541 1544 1545 1547 1548 1549 1550 1550 1551 1551 1550 1550 1550 1549 1548 1547 1546 1545 1544 1543 1542 1540 1539 1538 1536 1535 1534 1533 1532 1531 1530
1506 1508 1511 1515 1518 1521 1524 1527 1530 1533 1535 1537 1539 1541 1543 1545 1546 1547 1548 1548 1549 1549 1549 1548 1548 1547 1546 1545 1544 1543 1542 1540 1539 1538 1537 1536 1535 1533 1532 1531 1530 1529 1528
1502 1504 1507 1510 1514 1517 1521 1524 1527 1530 1533 1535 1537 1539 1540 1542 1544 1545 1546 1546 1547 1547 1547 1547 1546 1545 1544 1543 1542 1540 1539 1538 1537 1536 1535 1534 1533 1532 1531 1530 1528 1527 1526
1497 1500 1502 1505 1509 1513 1517 1521 1524 1527 1530 1532 1534 1536 1538 1539 1541 1543 1544 1544 1545 1545 1545 1545 1544 1543 1542 1541 1540 1538 1537 1535 1535 1534 1534 1533 1532 1531 1530 1528 1526 1525 1523
1492 1495 1497 1500 1505 1509 1512 1515 1519 1522 1525 1528 1531 1533 1535 1537 1538 1540 1541 1542 1542 1542 1542 1542 1542 1541 1540 1539 1537 1536 1535 1534 1533 1533 1532 1531 1530 1529 1528 1526 1524 1522 1520
1486 1490 1493 1496 1499 1503 1507 1511 1515 1518 1522 1525 1527 1530 1532 1534 1536 1537 1538 1539 1540 1540 1540 1540 1540 1539 1538 1537 1536 1534 1533 1533 1532 1532 1530 1529 1528 1527 1525 1523 1521 1519 1517
1481 1485 1488 1491 1495 1499 1503 1507 1512 1515 1518 1521 1523 1526 1529 1531 1533 1534 1535 1536 1537 1537 1537 1537 1537 1537 1536 1535 1535 1534 1533 1531 1530 1528 1527 1526 1525 1523 1522 1520 1518 1515 1513
1477 1481 1484 1488 1491 1495 1499 1502 1505 1508 1511 1515 1519 1522 1525 1527 1529 1531 1533 1533 1534 1535 1535 1535 1535 1534 1534 1533 1533 1532 1532 1531 1529 1525 1524 1523 1522 1520 1518 1516 1514 1511 1509
1473 1476 1480 1484 1487 1491 1494 1498 1501 1505 1509 1512 1515 1519 1521 1524 1526 1528 1529 1530 1531 1532 1532 1532 1532 1532 1531 1531 1530 1529 1528 1528 1526 1524 1520 1518 1516 1515 1514 1511 1509 1507 1504
1469 1473 1476 1480 1483 1487 1490 1494 1498 1501 1505 1508 1511 1514 1517 1520 1522 1524 1526 1527 1528 1528 1529 1529 1529 1529 1528 1528 1527 1526 1525 1524 1523 1521 1517 1513 1511 1509 1508 1506 1504 1502 1499